Location: Newark
(54.8972°N, 99.8189°W)
Time: 13:39:38
(UTC+00:00)

Transit 2A - Pass Details

Date: 19 November 2019
Orbit: 602 x 957 km, 66.7° (Epoch: 10 December)

Event Time Altitude Azimuth Distance (km) Brightness Sun altitude
Rises 02:06:08 0° 317° (NW) 2,892 9.7 -30.3°
Reaches altitude 10° 02:08:28 10° 322° (NW) 1,967 8.7 -30.6°
Enters shadow 02:10:06 22° 330° (NNW) 1,354 7.6 -30.8°
